[[{"header":{"parameterUnit":"m.s-1","parameterCategory":1,"la1":30.2991,"la2":30.254,"lo1":-89.0895,"lo2":-89.0444,"dy":0.0017,"dx":0.0017,"nx":28,"ny":28,"refTime":"2024-08-05T09:00:00:Z","depth":0,"parameterNumber":2,"parameterNumberName":"U-component_of_WINDS"},"data":[0,0,0,0,0,0,0,0,0,0,0,0,0,0,0,0,0,0,0,0,0,0,0,0,0,0,0,0,0,0,0,0,0,0,0,0,0,0,0,0,0,0,0,0,0,0,0,0,0,0,0,0,0,0,0,0,0,0,-0.3345,-0.3346,0,-0.3422,-0.3423,-0.3423,-0.345,-0.345,-0.3449,-0.3449,-0.3528,-0.3531,-0.3533,0,0,0,0,0,0,0,0,0,0,0,0,0,-0.3224,-0.3226,-0.3345,-0.3346,-0.3347,-0.3422,-0.3423,-0.3424,-0.345,-0.345,-0.3449,-0.3449,-0.3527,-0.353,-0.3533,0,0,0,0,0,0,0,0,0,0,0,0,0,-0.3286,-0.3227,-0.3345,-0.3369,-0.3372,-0.3421,-0.3423,-0.3424,-0.345,-0.345,-0.3449,-0.3449,-0.3527,-0.353,-0.3534,-0.3564,0,0,-0.3544,-0.3546,0,0,0,0,0,0,0,0,-0.3283,-0.3291,-0.3365,-0.3368,-0.3371,-0.3426,-0.3409,-0.3471,-0.345,-0.3421,-0.3449,-0.3449,-0.3495,-0.3501,-0.3516,-0.3568,-0.3571,-0.3545,-0.3547,-0.3548,-0.3549,0,0,0,0,0,0,0,-0.3278,-0.3287,-0.3376,-0.3366,-0.337,-0.3377,-0.3385,-0.3421,-0.3459,-0.3423,-0.3425,-0.3434,-0.3496,-0.3513,-0.3518,-0.3573,-0.3545,-0.3548,-0.355,-0.3551,-0.3655,-0.3656,0,0,0,0,0,0,-0.327,-0.3284,-0.3373,-0.3378,-0.3325,-0.3379,-0.3389,-0.3409,-0.3459,-0.3466,-0.3434,-0.3435,-0.3507,-0.3514,-0.3521,-0.3561,-0.3548,-0.3552,-0.3554,-0.3654,-0.3655,-0.3656,0,0,0,0,0,0,-0.3267,-0.3277,-0.337,-0.3331,-0.3344,-0.3382,-0.3404,-0.3411,-0.3427,-0.3467,-0.3474,-0.3444,-0.3507,-0.3516,-0.3554,-0.3564,-0.3553,-0.3557,-0.3654,-0.3655,-0.3655,-0.3641,0,0,0,0,0,0,-0.3263,-0.3276,-0.3288,-0.3331,-0.3346,-0.3401,-0.3405,-0.3412,-0.3433,-0.3434,-0.3478,-0.3485,-0.3507,-0.3548,-0.3557,-0.3569,-0.3559,-0.3653,-0.3654,-0.3655,-0.3641,-0.3641,-0.3642,0,0,0,0,0,-0.3259,-0.3281,-0.3288,-0.3299,-0.3361,-0.3401,-0.341,-0.3434,-0.3434,-0.3446,-0.3472,-0.3483,-0.3562,-0.3552,-0.3562,-0.3575,-0.3652,-0.3654,-0.3655,-0.3641,-0.3641,-0.3642,0,0,0,0,0,0,-0.3238,-0.3287,-0.3296,-0.3332,-0.3362,-0.3406,-0.3422,-0.3434,-0.3465,-0.3466,-0.3495,-0.3505,-0.3541,-0.3562,-0.355,-0.3608,-0.3608,-0.3611,-0.3593,-0.3594,-0.3595,-0.3589,-0.3562,0,0,0,0,0,-0.3237,-0.3265,-0.3307,-0.3335,-0.335,-0.3383,-0.3402,-0.3418,-0.3451,-0.3464,-0.3493,-0.3524,-0.3556,-0.3576,-0.3608,-0.3644,-0.3654,-0.3658,-0.3659,-0.3659,-0.3662,-0.3684,-0.3686,-0.366,-0.366,-0.366,0,0,-0.3236,-0.3267,-0.3283,-0.3332,-0.3357,-0.3386,-0.3394,-0.3424,-0.3446,-0.3469,-0.3506,-0.3528,-0.3565,-0.3603,-0.3621,-0.3621,-0.3671,-0.3661,-0.3661,-0.3664,-0.3685,-0.3688,-0.369,-0.3661,-0.3661,-0.3661,0,0,-0.325,-0.3276,-0.3303,-0.3328,-0.3366,-0.3388,-0.3395,-0.3436,-0.3452,-0.349,-0.3508,-0.3535,-0.3588,-0.3615,-0.3635,-0.3659,-0.3671,-0.3669,-0.3672,-0.3693,-0.3695,-0.3697,-0.3706,-0.3709,-0.3671,-0.3671,-0.3671,0,-0.3245,-0.3289,-0.3315,-0.3345,-0.3366,-0.3387,-0.3415,-0.3439,-0.3485,-0.35,-0.35,-0.3569,-0.3595,-0.3639,-0.3645,-0.3661,-0.367,-0.3664,-0.3692,-0.3695,-0.3697,-0.3706,-0.371,-0.3671,-0.3671,-0.3671,-0.3671,0,-0.3281,-0.3311,-0.3328,-0.3373,-0.3396,-0.3424,-0.3455,-0.3476,-0.3491,-0.3513,-0.3552,-0.3585,-0.3623,-0.3635,-0.365,-0.3682,-0.3681,-0.3687,-0.3687,-0.3698,-0.3708,-0.3712,-0.367,-0.367,-0.367,-0.3671,0,0,-0.3283,-0.3342,-0.3347,-0.3368,-0.3412,-0.3437,-0.3467,-0.3505,-0.3522,-0.3554,-0.358,-0.3626,-0.3631,-0.3654,-0.3672,-0.369,-0.3709,-0.3694,-0.3695,-0.3696,-0.3747,-0.3743,-0.3747,-0.3717,-0.3718,-0.3718,-0.3744,0,-0.3303,-0.3357,-0.3381,-0.3424,-0.3453,-0.3475,-0.3501,-0.3531,-0.3553,-0.3581,-0.3606,-0.3638,-0.3642,-0.3657,-0.3676,-0.3702,-0.372,-0.3701,-0.3743,-0.3744,-0.3733,-0.3752,-0.3747,-0.377,-0.3748,-0.3749,-0.3749,0,-0.3333,-0.3365,-0.3411,-0.3452,-0.3465,-0.3488,-0.3526,-0.3552,-0.3587,-0.3602,-0.3628,-0.3645,-0.3679,-0.3676,-0.3723,-0.371,-0.3728,-0.3744,-0.3746,-0.3751,-0.3747,-0.3758,-0.3778,-0.3782,-0.3755,-0.3755,-0.3754,0,-0.333,-0.3385,-0.342,-0.3437,-0.3486,-0.3502,-0.3523,-0.3558,-0.3579,-0.3612,-0.3626,-0.3662,-0.3682,-0.371,-0.3737,-0.3733,-0.3782,-0.3781,-0.3796,-0.3795,-0.3805,-0.3804,-0.3829,-0.3816,-0.3816,-0.3816,-0.3816,0,-0.335,-0.3378,-0.3419,-0.3441,-0.3472,-0.3501,-0.3532,-0.3555,-0.3586,-0.3612,-0.3633,-0.3658,-0.3692,-0.3721,-0.3743,-0.3779,-0.3787,-0.3801,-0.3806,-0.3799,-0.3798,-0.3812,-0.3811,-0.3817,-0.3817,-0.3817,-0.3816,0,-0.3353,-0.3382,-0.3421,-0.3465,-0.3476,-0.3498,-0.3535,-0.3558,-0.3581,-0.3615,-0.3624,-0.3661,-0.3697,-0.3726,-0.3773,-0.3788,-0.3825,-0.3831,-0.3813,-0.3816,-0.3829,-0.3828,-0.3864,-0.3871,-0.3853,-0.3853,-0.3853,0,-0.3364,-0.3385,-0.3431,-0.3451,-0.3472,-0.3503,-0.3525,-0.3554,-0.3576,-0.3619,-0.3636,-0.3673,-0.3704,-0.3761,-0.3792,-0.3828,-0.3836,-0.3846,-0.3842,-0.3834,-0.3837,-0.3835,-0.3838,-0.3847,-0.3847,-0.3847,-0.3847,0,-0.338,-0.3394,-0.3424,-0.3461,-0.3487,-0.3517,-0.3547,-0.3562,-0.3597,-0.3621,-0.3658,-0.3682,-0.3731,-0.3768,-0.3808,-0.383,-0.3845,-0.3848,-0.3854,-0.3847,-0.3836,-0.3842,-0.3815,-0.3847,-0.3847,-0.3847,-0.3847,-0.3847,-0.3388,-0.3408,-0.3444,-0.3478,-0.3504,-0.3533,-0.3556,-0.3582,-0.3613,-0.3655,-0.367,-0.3708,-0.3744,-0.3799,-0.3822,-0.3853,-0.3854,-0.3862,-0.3864,-0.3865,-0.3865,-0.383,-0.386,-0.386,-0.386,-0.386,-0.386,0,-0.3406,-0.343,-0.3461,-0.3503,-0.353,-0.3541,-0.3576,-0.3598,-0.3631,-0.3663,-0.3694,-0.3737,-0.3773,-0.3807,-0.3846,-0.3864,-0.3871,-0.3873,-0.3872,-0.3877,-0.3861,-0.3852,-0.3866,-0.3866,-0.3866,-0.3866,-0.3866,-0.3866,-0.3418,-0.3454,-0.3472,-0.3521,-0.3546,-0.3583,-0.3602,-0.3628,-0.3654,-0.3701,-0.3731,-0.3753,-0.3787,-0.3828,-0.3862,-0.3871,-0.3885,-0.3884,-0.3895,-0.3879,-0.3878,-0.3877,-0.387,-0.3887,-0.3887,-0.391,-0.391,-0.391]},{"header":{"parameterUnit":"m.s-1","parameterCategory":1,"la1":30.2991,"la2":30.254,"lo1":-89.0895,"lo2":-89.0444,"dy":0.0017,"dx":0.0017,"nx":28,"ny":28,"refTime":"2024-08-05T09:00:00:Z","depth":0,"parameterNumber":3,"parameterNumberName":"V-component_of_WINDS"},"data":[0,0,0,0,0,0,0,0,0,0,0,0,0,0,0,0,0,0,0,0,0,0,0,0,0,0,0,0,0,0,0,0,0,0,0,0,0,0,0,0,0,0,0,0,0,0,0,0,0,0,0,0,0,0,0,0,0,0,-1.6922,-1.6922,0,-1.6848,-1.6848,-1.6847,-1.6797,-1.6796,-1.6796,-1.6796,-1.6717,-1.6716,-1.6714,0,0,0,0,0,0,0,0,0,0,0,0,0,-1.702,-1.7018,-1.6922,-1.6922,-1.6921,-1.6849,-1.6848,-1.6847,-1.6797,-1.6796,-1.6796,-1.6795,-1.6718,-1.6716,-1.6714,0,0,0,0,0,0,0,0,0,0,0,0,0,-1.6965,-1.7018,-1.6923,-1.6887,-1.6883,-1.6849,-1.6848,-1.6846,-1.6797,-1.6796,-1.6796,-1.6795,-1.6719,-1.6716,-1.6714,-1.6708,0,0,-1.6706,-1.6704,0,0,0,0,0,0,0,0,-1.6968,-1.6961,-1.6893,-1.6889,-1.6885,-1.6831,-1.6853,-1.68,-1.6797,-1.683,-1.6796,-1.6795,-1.6756,-1.675,-1.6737,-1.6704,-1.6701,-1.6705,-1.6704,-1.6703,-1.6702,0,0,0,0,0,0,0,-1.6972,-1.6964,-1.6893,-1.6892,-1.6887,-1.6875,-1.6866,-1.6843,-1.6796,-1.6827,-1.6823,-1.6815,-1.6753,-1.674,-1.6735,-1.67,-1.6705,-1.6703,-1.6701,-1.67,-1.6661,-1.6662,0,0,0,0,0,0,-1.6982,-1.6968,-1.6895,-1.6891,-1.6926,-1.6873,-1.6864,-1.6849,-1.6796,-1.6788,-1.6815,-1.6813,-1.6745,-1.6738,-1.6732,-1.6724,-1.6703,-1.67,-1.6699,-1.6661,-1.6661,-1.6662,0,0,0,0,0,0,-1.6984,-1.6976,-1.6898,-1.6928,-1.6918,-1.6872,-1.6856,-1.6848,-1.6834,-1.6788,-1.6779,-1.681,-1.6744,-1.6736,-1.6715,-1.672,-1.6699,-1.6697,-1.666,-1.6661,-1.6661,-1.6706,0,0,0,0,0,0,-1.6987,-1.6977,-1.6974,-1.6929,-1.6916,-1.6883,-1.6856,-1.6847,-1.683,-1.6826,-1.6781,-1.6773,-1.6743,-1.6719,-1.6712,-1.6716,-1.6694,-1.6659,-1.666,-1.6661,-1.6704,-1.6708,-1.6712,0,0,0,0,0,-1.6991,-1.6988,-1.6974,-1.6966,-1.6912,-1.6883,-1.6876,-1.6842,-1.6831,-1.6828,-1.6799,-1.6774,-1.6721,-1.6718,-1.6709,-1.6712,-1.6659,-1.666,-1.6661,-1.6702,-1.6707,-1.6712,0,0,0,0,0,0,-1.7034,-1.6982,-1.6965,-1.6948,-1.6921,-1.6875,-1.687,-1.6849,-1.6823,-1.682,-1.6778,-1.6769,-1.6753,-1.673,-1.6728,-1.6705,-1.6687,-1.6687,-1.6721,-1.6725,-1.6729,-1.6735,-1.6692,0,0,0,0,0,-1.7042,-1.7023,-1.6978,-1.6968,-1.6955,-1.6915,-1.6901,-1.6878,-1.6847,-1.6835,-1.6804,-1.6775,-1.6752,-1.6737,-1.6713,-1.67,-1.6691,-1.6699,-1.6703,-1.6706,-1.6707,-1.6701,-1.6704,-1.6666,-1.6666,-1.6666,0,0,-1.7057,-1.7026,-1.7017,-1.6976,-1.6952,-1.6934,-1.6906,-1.6887,-1.6874,-1.6832,-1.6811,-1.6788,-1.6753,-1.6737,-1.6728,-1.6718,-1.6715,-1.6708,-1.6711,-1.6709,-1.6702,-1.6706,-1.6709,-1.6667,-1.6666,-1.6666,0,0,-1.7076,-1.7051,-1.704,-1.7018,-1.6982,-1.6956,-1.6954,-1.6912,-1.6895,-1.6874,-1.6843,-1.6827,-1.6787,-1.6764,-1.6747,-1.6761,-1.6738,-1.6754,-1.6775,-1.677,-1.6773,-1.6776,-1.6782,-1.6785,-1.6755,-1.6755,-1.6755,0,-1.7099,-1.7072,-1.7037,-1.7022,-1.7005,-1.6969,-1.6959,-1.6938,-1.6896,-1.6886,-1.6875,-1.6826,-1.6799,-1.6779,-1.6783,-1.677,-1.6767,-1.6759,-1.6776,-1.6778,-1.6779,-1.6785,-1.6788,-1.6757,-1.6757,-1.6756,-1.6756,0,-1.7103,-1.7085,-1.708,-1.7044,-1.7026,-1.7013,-1.6977,-1.6964,-1.6943,-1.6919,-1.6899,-1.6866,-1.6836,-1.6829,-1.6807,-1.6806,-1.6801,-1.6783,-1.6764,-1.6786,-1.6791,-1.6793,-1.676,-1.6759,-1.6759,-1.6758,0,0,-1.7146,-1.7092,-1.7091,-1.7075,-1.7035,-1.702,-1.7006,-1.6978,-1.6969,-1.6941,-1.693,-1.6898,-1.6883,-1.6864,-1.6839,-1.6834,-1.685,-1.6817,-1.6816,-1.6826,-1.6849,-1.6864,-1.6867,-1.6835,-1.6835,-1.6835,-1.6853,0,-1.716,-1.7134,-1.7104,-1.7089,-1.7072,-1.7039,-1.7027,-1.7001,-1.6978,-1.6961,-1.6935,-1.6915,-1.6895,-1.6883,-1.6877,-1.685,-1.6854,-1.6848,-1.6824,-1.6824,-1.6835,-1.6869,-1.6883,-1.6901,-1.6854,-1.6854,-1.6855,0,-1.7172,-1.7149,-1.7133,-1.7097,-1.7089,-1.7079,-1.7053,-1.7036,-1.7007,-1.6991,-1.6972,-1.6946,-1.6931,-1.6914,-1.6892,-1.6889,-1.6877,-1.6862,-1.6862,-1.6859,-1.6841,-1.6868,-1.6906,-1.6909,-1.6857,-1.6857,-1.6857,0,-1.7207,-1.7172,-1.7158,-1.7145,-1.7103,-1.7097,-1.7079,-1.7049,-1.7035,-1.7012,-1.7003,-1.6977,-1.6963,-1.6945,-1.6913,-1.6903,-1.6896,-1.6876,-1.6883,-1.6884,-1.6883,-1.6884,-1.6921,-1.6874,-1.6874,-1.6874,-1.6874,0,-1.7226,-1.7218,-1.7174,-1.7166,-1.7156,-1.7122,-1.7113,-1.7092,-1.7067,-1.7054,-1.7023,-1.7011,-1.697,-1.6954,-1.693,-1.6917,-1.691,-1.6898,-1.6891,-1.6901,-1.6903,-1.6893,-1.6892,-1.6875,-1.6875,-1.6875,-1.6874,0,-1.7263,-1.7233,-1.7217,-1.7179,-1.7169,-1.7164,-1.7131,-1.7122,-1.7099,-1.7084,-1.7078,-1.7041,-1.7021,-1.6988,-1.6957,-1.6941,-1.6933,-1.6922,-1.6944,-1.694,-1.695,-1.695,-1.6983,-1.6987,-1.6937,-1.6937,-1.6938,0,-1.7278,-1.7271,-1.7234,-1.7224,-1.7207,-1.7191,-1.7178,-1.7145,-1.7132,-1.71,-1.7095,-1.7073,-1.7054,-1.7023,-1.6994,-1.6971,-1.6959,-1.6973,-1.6956,-1.6967,-1.6962,-1.6963,-1.6963,-1.6977,-1.6977,-1.6978,-1.6978,0,-1.7307,-1.7294,-1.7276,-1.7254,-1.724,-1.722,-1.7199,-1.7193,-1.7155,-1.7142,-1.7123,-1.7108,-1.7079,-1.7058,-1.7031,-1.7012,-1.699,-1.6984,-1.6985,-1.6995,-1.7009,-1.7004,-1.6956,-1.6984,-1.6983,-1.6983,-1.6982,-1.6982,-1.7334,-1.7328,-1.7302,-1.7284,-1.7265,-1.7247,-1.7238,-1.7215,-1.7198,-1.7173,-1.7154,-1.7136,-1.7109,-1.7072,-1.7055,-1.704,-1.703,-1.703,-1.7031,-1.7032,-1.7036,-1.7011,-1.7035,-1.7035,-1.7034,-1.7034,-1.7034,0,-1.7364,-1.7346,-1.733,-1.7303,-1.729,-1.7271,-1.7248,-1.7238,-1.7223,-1.72,-1.7183,-1.7162,-1.7142,-1.7112,-1.709,-1.7084,-1.7074,-1.708,-1.708,-1.7077,-1.7046,-1.7048,-1.7089,-1.7089,-1.7089,-1.7089,-1.7089,-1.7089,-1.7377,-1.7367,-1.7351,-1.7331,-1.7313,-1.7296,-1.7285,-1.7269,-1.7251,-1.7229,-1.7214,-1.7195,-1.7169,-1.7146,-1.7127,-1.7119,-1.7113,-1.7123,-1.7112,-1.7083,-1.7078,-1.7074,-1.7076,-1.7122,-1.7122,-1.7144,-1.7144,-1.7144]}]]